This is the latest recevied weather packets stored in our database for station/object KD2RHT-13. If no packets are shown the sender has not sent any weather packets the latest 10 day(s).
| Time | Temp. | Humidity | Pressure | Rain* | Wind** | Luminosity | Snow |
|---|---|---|---|---|---|---|---|
| 1777883205 | 11.11° C | 64% | 1009.4 hPa | 0 mm | - | 0 W/m² | - |
| 1777882902 | 11.11° C | 65% | 1009.4 hPa | 0 mm | - | 0 W/m² | - |
| 1777882599 | 11.11° C | 64% | 1009.7 hPa | 0 mm | - | 0 W/m² | - |
| 1777882295 | 10.56° C | 64% | 1009.7 hPa | 0 mm | - | 0 W/m² | - |
| 1777881992 | 10.56° C | 65% | 1009.7 hPa | 0 mm | - | 0 W/m² | - |
| 1777881688 | 10.56° C | 66% | 1009.4 hPa | 0 mm | - | 0 W/m² | - |
| 1777881385 | 10.56° C | 65% | 1009.7 hPa | 0 mm | - | 0 W/m² | - |
| 1777881082 | 10.56° C | 65% | 1009.7 hPa | 0 mm | - | 0 W/m² | - |
| 1777880780 | 11.11° C | 66% | 1010 hPa | 0 mm | - | 0 W/m² | - |
| 1777880478 | 11.11° C | 66% | 1010 hPa | 0 mm | - | 0 W/m² | - |
| 1777880176 | 10.56° C | 65% | 1010 hPa | 0 mm | - | 0 W/m² | - |
| 1777879874 | 10.56° C | 67% | 1009.7 hPa | 0 mm | - | 0 W/m² | - |
| 1777879572 | 10.56° C | 68% | 1010 hPa | 0 mm | - | 0 W/m² | - |
| 1777879268 | 10.56° C | 67% | 1010 hPa | 0 mm | - | 0 W/m² | - |
| 1777878966 | 10.56° C | 68% | 1010 hPa | 0 mm | - | 0 W/m² | - |
| 1777878662 | 10.56° C | 68% | 1010 hPa | 0 mm | - | 0 W/m² | - |
| 1777878360 | 10.56° C | 69% | 1010 hPa | 0 mm | - | 0 W/m² | - |
| 1777878055 | 10° C | 70% | 1010 hPa | 0 mm | - | 0 W/m² | - |
| 1777877752 | 10° C | 73% | 1010 hPa | 0 mm | - | 0 W/m² | - |
| 1777877449 | 9.44° C | 74% | 1010 hPa | 0 mm | - | 0 W/m² | - |
| 1777877146 | 8.33° C | 83% | 1010 hPa | 0 mm | - | 0 W/m² | - |
| 1777876843 | 7.78° C | 93% | 1010 hPa | 0 mm | - | 0 W/m² | - |
| 1777876541 | 7.78° C | 95% | 1010.4 hPa | 0 mm | - | 0 W/m² | - |
| 1777876238 | 7.78° C | 96% | 1010 hPa | 0 mm | - | 0 W/m² | - |
| 1777875934 | 8.33° C | 96% | 1010 hPa | 0 mm | - | 0 W/m² | - |
* Rain latest hour (hover to see other rain measurements)
** Current wind speed in m/s (hover to see current wind gust speed)